K4AVM-13 Weather Reports


time (UTC)temp
F
wind
direction
speed
knots
gust
knots
rain 1hr
in
rain 24hr
in
rain mn
in
humidity
%
barometer
mb
20260504070229 47 135 0.0 0.0 0.00 0.00 0.00 74 1018.1
20260504060150 43 120 0.0 0.0 0.00 0.00 0.00 80 1018.2
20260504050618 44 133 0.0 0.0 0.00 0.00 0.00 77 1018.0
20260504050115 44 131 0.0 0.0 0.00 0.00 0.00 76 1018.0
20260504045612 44 134 0.0 0.0 0.00 0.00 0.00 76 1018.0
20260504045107 44 131 0.0 0.0 0.00 0.00 0.00 76 1018.0
20260504044605 44 141 0.0 0.0 0.00 0.00 0.00 76 1018.1
20260504044102 44 128 0.0 0.0 0.00 0.00 0.00 75 1018.0
20260504043559 45 138 0.0 0.0 0.00 0.00 0.00 74 1018.0
20260504043056 45 134 0.0 0.0 0.00 0.00 0.00 73 1018.0
20260504042553 45 132 0.0 0.0 0.00 0.00 0.00 73 1018.1
20260504042050 45 127 0.0 0.0 0.00 0.00 0.00 73 1018.1
20260504041545 44 133 0.0 0.0 0.00 0.00 0.00 75 1017.9
20260504041042 44 135 0.0 0.0 0.00 0.00 0.00 76 1017.9
20260504040539 44 133 0.0 0.0 0.00 0.00 0.00 76 1018.0
20260504040036 44 133 0.0 0.0 0.00 0.00 0.00 77 1017.9
20260504035533 44 132 0.0 0.0 0.00 0.00 0.00 76 1017.9
20260504035029 44 124 0.0 0.0 0.00 0.00 0.00 76 1017.9
20260504034527 44 129 0.0 0.0 0.00 0.00 0.00 76 1017.9
20260504034024 44 130 0.0 0.0 0.00 0.00 0.00 75 1018.0
20260504033522 44 128 0.0 0.0 0.00 0.00 0.00 75 1018.0
20260504033019 44 132 0.0 0.0 0.00 0.00 0.00 75 1018.0
20260504032516 44 131 0.0 0.0 0.00 0.00 0.00 74 1017.7
20260504032012 44 131 0.0 0.0 0.00 0.00 0.00 74 1017.8
20260504031509 44 129 0.0 0.0 0.00 0.00 0.00 72 1017.7
20260504031005 45 135 0.0 0.0 0.00 0.00 0.00 73 1017.8
20260504030503 45 143 0.0 0.0 0.00 0.00 0.00 72 1017.9
20260504025959 45 145 0.0 0.0 0.00 0.00 0.00 72 1017.8
20260504025456 45 143 0.0 0.0 0.00 0.00 0.00 71 1017.8
20260504024953 45 144 0.0 0.0 0.00 0.00 0.00 71 1017.6
20260504024450 45 145 0.0 0.0 0.00 0.00 0.00 69 1017.8
20260504023947 45 148 0.0 0.0 0.00 0.00 0.00 70 1017.7
20260504023444 45 148 0.0 0.0 0.00 0.00 0.00 71 1017.7
20260504022939 45 150 0.0 0.0 0.00 0.00 0.00 70 1017.7
20260504022435 46 147 0.0 0.0 0.00 0.00 0.00 69 1017.6
20260504021932 46 142 0.0 0.0 0.00 0.00 0.00 70 1017.8
20260504021429 46 141 0.0 0.0 0.00 0.00 0.00 70 1017.7
20260504020926 46 141 0.0 0.0 0.00 0.00 0.00 69 1017.6
20260504020423 46 137 0.0 0.0 0.00 0.00 0.00 69 1017.7
20260504015920 46 141 0.0 0.0 0.00 0.00 0.00 68 1017.6
20260504015415 46 145 0.0 0.0 0.00 0.00 0.00 66 1017.5
20260504014912 47 145 0.0 0.0 0.00 0.00 0.00 65 1017.6
20260504014408 47 149 0.0 0.0 0.00 0.00 0.00 65 1017.6
20260504013904 47 152 0.0 0.0 0.00 0.00 0.00 66 1017.7
20260504013403 47 152 0.0 0.0 0.00 0.00 0.00 66 1017.6
20260504012859 47 152 0.0 0.0 0.00 0.00 0.00 64 1017.5
20260504012356 48 150 0.0 0.0 0.00 0.00 0.00 63 1017.7
20260504011849 48 150 0.0 0.0 0.00 0.00 0.00 61 1017.7
20260504011345 48 151 0.0 0.0 0.00 0.00 0.00 62 1017.5
20260504010841 49 152 0.0 0.0 0.00 0.00 0.00 60 1017.5
20260504010337 49 152 0.0 0.0 0.00 0.00 0.00 60 1017.6
20260504005834 50 153 0.0 0.0 0.00 0.00 0.00 57 1017.6
20260504005330 50 153 0.0 0.0 0.00 0.00 0.00 58 1017.5
20260504004828 50 152 0.0 0.0 0.00 0.00 0.00 56 1017.6
20260504004326 51 152 0.0 0.0 0.00 0.00 0.00 54 1017.4
20260504003822 51 154 0.0 0.0 0.00 0.00 0.00 52 1017.2
20260504003319 52 154 0.0 0.0 0.00 0.00 0.00 51 1017.2
20260504002816 52 154 0.0 0.0 0.00 0.00 0.00 49 1017.3
20260504002312 53 156 0.0 0.0 0.00 0.00 0.00 48 1017.2
20260504001810 53 156 0.0 0.0 0.00 0.00 0.00 47 1017.1
20260504001307 54 154 0.0 0.0 0.00 0.00 0.00 46 1017.3
20260504000804 54 153 0.0 0.0 0.00 0.00 0.00 45 1017.1
20260504000301 55 155 0.0 0.0 0.00 0.00 0.00 44 1016.9
20260503235759 56 157 0.0 0.0 0.00 0.00 0.00 42 1016.9
20260503235256 57 161 0.0 0.0 0.00 0.00 0.00 41 1016.9
20260503234754 57 162 0.0 0.0 0.00 0.00 0.00 39 1016.8
20260503234251 58 172 0.0 0.0 0.00 0.00 0.00 41 1016.9
20260503233748 58 162 0.0 0.0 0.00 0.00 0.00 39 1016.6
20260503233244 59 158 0.0 0.0 0.00 0.00 0.00 38 1016.8
20260503232741 59 160 0.0 0.0 0.00 0.00 0.00 37 1016.6
20260503232238 59 146 0.0 0.0 0.00 0.00 0.00 36 1016.8
20260503231736 60 177 0.0 0.0 0.00 0.00 0.00 36 1016.7
20260503231233 60 159 0.0 0.9 0.00 0.00 0.00 34 1016.7
20260503230729 61 160 0.0 0.0 0.00 0.00 0.00 34 1016.8
20260503230227 61 167 0.0 0.0 0.00 0.00 0.00 34 1016.7
20260503225724 61 130 0.0 0.0 0.00 0.00 0.00 35 1016.6
20260503225224 61 176 0.0 0.9 0.00 0.00 0.00 35 1016.8
20260503224721 61 161 0.0 0.0 0.00 0.00 0.00 33 1016.7
20260503224219 61 124 0.0 0.0 0.00 0.00 0.00 32 1016.7
20260503223716 61 159 0.0 0.0 0.00 0.00 0.00 32 1016.9
20260503223214 62 154 0.0 0.0 0.00 0.00 0.00 33 1016.7
20260503222710 62 177 0.0 0.0 0.00 0.00 0.00 33 1016.7
20260503222208 62 178 0.0 0.0 0.00 0.00 0.00 33 1016.8
20260503221706 63 174 1.7 2.6 0.00 0.00 0.00 32 1016.9
20260503221203 63 174 1.7 2.6 0.00 0.00 0.00 32 1016.7
20260503220700 62 166 0.9 0.9 0.00 0.00 0.00 32 1017.0
20260503220156 62 76 0.0 2.6 0.00 0.00 0.00 32 1017.0
20260503215653 62 168 0.0 1.7 0.00 0.00 0.00 33 1017.0
20260503215150 63 238 0.9 1.7 0.00 0.00 0.00 30 1017.0
20260503214648 63 178 0.9 2.6 0.00 0.00 0.00 31 1016.9
20260503214144 65 179 0.0 7.0 0.00 0.00 0.00 31 1017.0
20260503213638 66 204 0.9 1.7 0.00 0.00 0.00 30 1016.9
20260503213134 65 340 1.7 5.2 0.00 0.00 0.00 28 1016.8
20260503212632 67 196 0.9 2.6 0.00 0.00 0.00 30 1017.0
20260503212129 66 173 0.0 0.9 0.00 0.00 0.00 27 1016.9
20260503211627 66 112 0.9 1.7 0.00 0.00 0.00 28 1016.8
20260503211122 66 206 0.0 1.7 0.00 0.00 0.00 30 1016.9
20260503210618 65 190 0.9 1.7 0.00 0.00 0.00 29 1017.1
20260503210115 66 141 0.9 5.2 0.00 0.00 0.00 29 1017.2
20260503205611 66 200 0.9 3.5 0.00 0.00 0.00 30 1017.1
20260503205107 66 189 0.9 2.6 0.00 0.00 0.00 31 1017.0
20260503204604 67 196 1.7 1.7 0.00 0.00 0.00 28 1016.9
20260503204101 65 192 0.9 2.6 0.00 0.00 0.00 30 1016.7
20260503203558 66 182 1.7 2.6 0.00 0.00 0.00 29 1016.9
20260503203055 65 191 0.0 0.9 0.00 0.00 0.00 32 1017.0
20260503202553 66 309 1.7 3.5 0.00 0.00 0.00 29 1017.0
20260503202051 66 309 1.7 3.5 0.00 0.00 0.00 29 1017.0
20260503201549 66 2 2.6 2.6 0.00 0.00 0.00 28 1016.9
20260503201046 65 204 0.9 1.7 0.00 0.00 0.00 28 1017.0
20260503200542 65 180 0.9 1.7 0.00 0.00 0.00 29 1017.2
20260503200039 65 185 1.7 1.7 0.00 0.00 0.00 32 1017.3
20260503195536 64 177 0.9 1.7 0.00 0.00 0.00 30 1017.5
20260503195033 64 39 0.9 2.6 0.00 0.00 0.00 32 1017.4
20260503194530 64 216 2.6 5.2 0.00 0.00 0.00 30 1017.7
20260503194030 65 62 1.7 2.6 0.00 0.00 0.00 29 1017.3
20260503193527 65 185 0.9 1.7 0.00 0.00 0.00 31 1017.6
20260503193022 64 179 1.7 1.7 0.00 0.00 0.00 33 1017.7
20260503192518 62 193 0.0 0.0 0.00 0.00 0.00 32 1017.7
20260503192014 63 232 1.7 2.6 0.00 0.00 0.00 32 1017.9
20260503191511 64 218 1.7 3.5 0.00 0.00 0.00 32 1018.0
20260503191008 63 182 0.9 2.6 0.00 0.00 0.00 30 1018.0
20260503190505 63 183 0.9 0.9 0.00 0.00 0.00 31 1017.9
20260503190002 63 128 0.0 5.2 0.00 0.00 0.00 33 1018.1
20260503185458 62 249 1.7 12.2 0.00 0.00 0.00 31 1018.4
20260503184958 64 229 1.7 2.6 0.00 0.00 0.00 30 1017.9
20260503184454 63 20 0.0 1.7 0.00 0.00 0.00 31 1018.4
20260503183951 63 201 1.7 5.2 0.00 0.00 0.00 36 1018.4
20260503183448 63 355 1.7 6.1 0.00 0.00 0.00 33 1018.5
20260503182944 62 108 0.9 6.1 0.00 0.00 0.00 31 1018.6
20260503182444 61 335 0.0 6.1 0.00 0.00 0.00 30 1018.5
20260503181941 61 176 0.9 3.5 0.00 0.00 0.00 32 1018.8
20260503181438 62 184 0.9 2.6 0.00 0.00 0.00 36 1018.6
20260503180933 61 173 0.9 1.7 0.00 0.00 0.00 33 1018.4
20260503180432 60 211 2.6 2.6 0.00 0.00 0.00 33 1018.6
20260503175929 63 38 1.7 5.2 0.00 0.00 0.00 33 1018.6
20260503175427 61 195 0.9 1.7 0.00 0.00 0.00 35 1018.7
20260503174922 62 325 4.3 7.0 0.00 0.00 0.00 32 1018.3
20260503174420 62 161 0.9 2.6 0.00 0.00 0.00 33 1018.6
20260503173914 61 306 1.7 5.2 0.00 0.00 0.00 32 1018.8
20260503173411 60 171 0.0 1.7 0.00 0.00 0.00 39 1018.9
20260503172908 59 176 1.7 2.6 0.00 0.00 0.00 36 1018.9
20260503172406 60 184 1.7 2.6 0.00 0.00 0.00 33 1018.8
20260503171901 61 2 2.6 5.2 0.00 0.00 0.00 34 1018.9
20260503171358 60 193 1.7 2.6 0.00 0.00 0.00 33 1019.0
20260503170856 60 60 2.6 3.5 0.00 0.00 0.00 33 1019.2
20260503170352 59 187 0.9 3.5 0.00 0.00 0.00 35 1019.3
20260503150744 55 8 0.9 7.0 0.00 0.00 0.00 36 1019.8
20260503150240 56 188 1.7 7.0 0.00 0.00 0.00 38 1020.0
20260503140205 53 209 1.7 2.6 0.00 0.00 0.00 35 1019.8
20260503131134 51 313 6.1 9.6 0.00 0.00 0.00 50 1019.8
20260503130632 51 143 1.7 12.2 0.00 0.00 0.00 52 1020.0
20260503130129 51 344 2.6 6.1 0.00 0.00 0.00 53 1019.7
20260503110517 43 160 0.0 0.9 0.00 0.00 0.00 69 1018.8
20260503090403 47 124 0.9 1.7 0.00 0.00 0.00 60 1016.8
20260503081330 48 22 2.6 2.6 0.00 0.00 0.00 58 1016.3
20260503080826 48 94 0.0 0.9 0.00 0.00 0.00 59 1016.3
20260503080323 48 251 1.7 3.5 0.00 0.00 0.00 58 1016.4